This is the latest recevied weather packets stored in our database for station/object IZ2XCK-13. If no packets are shown the sender has not sent any weather packets the latest 10 day(s).
| Time | Temp. | Humidity | Pressure | Rain* | Wind** | Luminosity | Snow |
|---|---|---|---|---|---|---|---|
| 1777649100 | 22.22° C | 28% | 1026.3 hPa | - | - | - | - |
| 1777647900 | 22.22° C | 28% | 1026.4 hPa | - | - | - | - |
| 1777646700 | 22.78° C | 29% | 1026.4 hPa | - | - | - | - |
| 1777645499 | 23.33° C | 28% | 1026.4 hPa | - | - | - | - |
| 1777644299 | 23.33° C | 29% | 1026.6 hPa | - | - | - | - |
| 1777643099 | 23.33° C | 29% | 1026.8 hPa | - | - | - | - |
| 1777641898 | 22.22° C | 30% | 1027 hPa | - | - | - | - |
| 1777640698 | 22.22° C | 31% | 1027.2 hPa | - | - | - | - |
| 1777639498 | 21.67° C | 34% | 1027.5 hPa | - | - | - | - |
| 1777638297 | 20.56° C | 34% | 1027.6 hPa | - | - | - | - |
| 1777637097 | 20.56° C | 36% | 1027.7 hPa | - | - | - | - |
| 1777635897 | 19.44° C | 37% | 1027.9 hPa | - | - | - | - |
| 1777634697 | 18.33° C | 37% | 1028.1 hPa | - | - | - | - |
| 1777633496 | 18.33° C | 38% | 1028.3 hPa | - | - | - | - |
| 1777632296 | 17.78° C | 42% | 1028.4 hPa | - | - | - | - |
| 1777631096 | 16.67° C | 42% | 1028.6 hPa | - | - | - | - |
| 1777629895 | 16.67° C | 43% | 1028.8 hPa | - | - | - | - |
| 1777628695 | 15.56° C | 43% | 1028.9 hPa | - | - | - | - |
| 1777627495 | 15° C | 44% | 1028.9 hPa | - | - | - | - |
| 1777626294 | 15° C | 43% | 1029 hPa | - | - | - | - |
| 1777625094 | 15° C | 45% | 1029.2 hPa | - | - | - | - |
| 1777623894 | 15° C | 48% | 1029.2 hPa | - | - | - | - |
| 1777622693 | 13.89° C | 53% | 1029.1 hPa | - | - | - | - |
| 1777621493 | 13.89° C | 55% | 1029.1 hPa | - | - | - | - |
| 1777620293 | 13.33° C | 59% | 1028.8 hPa | - | - | - | - |
* Rain since midnight (hover to see other rain measurements)
** Current wind speed in m/s (hover to see current wind gust speed)